TimeCST,TemperatureF,Dew PointF,Humidity,Sea Level PressureIn,VisibilityMPH,Wind Direction,Wind SpeedMPH,Gust SpeedMPH,PrecipitationIn,Events,Conditions,WindDirDegrees,DateUTC
12:53 AM,9.0,3.9,80,30.04,10.0,South,3.5,-,N/A,,Overcast,170,2012-01-14 06:53:00
1:53 AM,9.0,3.9,80,30.04,10.0,ESE,3.5,-,N/A,,Overcast,120,2012-01-14 07:53:00
2:53 AM,8.1,3.0,80,30.06,10.0,Calm,Calm,-,N/A,,Mostly Cloudy,0,2012-01-14 08:53:00
3:53 AM,9.0,3.9,80,30.06,10.0,ESE,3.5,-,N/A,,Overcast,110,2012-01-14 09:53:00
4:53 AM,7.0,3.0,84,30.06,10.0,East,3.5,-,N/A,,Clear,100,2012-01-14 10:53:00
5:53 AM,8.1,3.0,80,30.07,10.0,SE,3.5,-,N/A,,Overcast,130,2012-01-14 11:53:00
6:53 AM,10.0,3.9,76,30.06,10.0,East,3.5,-,N/A,,Overcast,90,2012-01-14 12:53:00
7:53 AM,10.0,3.9,76,30.08,10.0,ESE,3.5,-,N/A,,Overcast,110,2012-01-14 13:53:00
8:53 AM,10.9,6.1,81,30.09,10.0,SE,4.6,-,N/A,,Overcast,140,2012-01-14 14:53:00
9:53 AM,14.0,6.1,71,30.09,10.0,ESE,5.8,-,N/A,,Overcast,110,2012-01-14 15:53:00
10:38 AM,15.8,8.6,73,30.05,2.0,SE,5.8,-,0.00,Snow,Light Snow,140,2012-01-14 16:38:00
10:53 AM,16.0,9.0,74,30.10,1.8,SE,6.9,-,0.00,Snow,Light Snow,130,2012-01-14 16:53:00
11:00 AM,17.6,8.6,68,30.03,3.0,ESE,5.8,-,0.00,Snow,Light Snow,120,2012-01-14 17:00:00
11:22 AM,17.6,10.4,73,30.03,9.0,ESE,5.8,-,0.00,,Overcast,120,2012-01-14 17:22:00
11:29 AM,17.6,10.4,73,30.03,9.0,SE,6.9,-,0.00,,Overcast,130,2012-01-14 17:29:00
11:53 AM,19.0,10.9,71,30.07,4.0,SE,8.1,-,0.00,,Haze,130,2012-01-14 17:53:00
12:53 PM,19.9,12.0,71,30.06,7.0,SE,8.1,-,0.00,,Overcast,130,2012-01-14 18:53:00
1:11 PM,21.2,12.2,68,30.00,2.0,SE,8.1,-,0.00,Snow,Light Snow,140,2012-01-14 19:11:00
1:30 PM,21.2,14.0,74,30.01,3.0,SSE,6.9,-,0.00,Snow,Light Snow,160,2012-01-14 19:30:00
1:53 PM,21.0,15.1,78,30.06,6.0,SSE,5.8,-,0.00,Snow,Light Snow,150,2012-01-14 19:53:00
2:28 PM,21.2,15.8,80,30.01,6.0,ESE,5.8,-,0.00,Snow,Light Snow,120,2012-01-14 20:28:00
2:53 PM,21.0,16.0,81,30.06,7.0,ESE,6.9,-,0.00,Snow,Light Snow,120,2012-01-14 20:53:00
3:22 PM,21.2,15.8,80,30.01,1.0,East,5.8,-,0.00,Snow,Light Snow,100,2012-01-14 21:22:00
3:30 PM,21.2,17.6,86,30.01,3.0,East,4.6,-,0.00,Snow,Light Snow,100,2012-01-14 21:30:00
3:53 PM,21.9,17.1,82,30.07,5.0,East,3.5,-,0.00,Snow,Light Snow,100,2012-01-14 21:53:00
4:53 PM,23.0,18.0,81,30.09,10.0,Calm,Calm,-,0.00,,Overcast,0,2012-01-14 22:53:00
5:53 PM,21.9,18.0,85,30.10,10.0,ENE,4.6,-,N/A,,Overcast,70,2012-01-14 23:53:00
6:53 PM,21.9,18.0,85,30.10,10.0,ENE,3.5,-,N/A,,Overcast,70,2012-01-15 00:53:00
7:35 PM,21.2,17.6,86,30.06,10.0,ESE,3.5,-,N/A,,Overcast,110,2012-01-15 01:35:00
7:53 PM,23.0,18.0,81,30.12,10.0,Calm,Calm,-,N/A,,Overcast,0,2012-01-15 01:53:00
8:53 PM,21.9,18.0,85,30.12,7.0,Calm,Calm,-,N/A,,Overcast,0,2012-01-15 02:53:00
9:53 PM,21.9,17.1,82,30.12,9.0,Calm,Calm,-,N/A,,Overcast,0,2012-01-15 03:53:00
10:53 PM,21.9,18.0,85,30.12,9.0,East,4.6,-,N/A,,Overcast,100,2012-01-15 04:53:00
11:53 PM,21.0,16.0,81,30.13,8.0,East,3.5,-,N/A,,Scattered Clouds,80,2012-01-15 05:53:00